• en France
  • Liste des pays
  • À 7 jours
  • Température de l'eau
  • Carte satellitaire
  • Carte météo
  • Widgets météo
  • user-avatar
    Se connecter

    Météo par heure à Cheremnovo

    Ce jour, 19 Juillet, Jeudi

    Heure Température Précipitation Vent Pression Humidité
    00:00 +19°C° 0 mm 2 m/s 745 mmHg 79%
    01:00 +18°C° 0 mm 2 m/s 745 mmHg 81%
    02:00 +18°C° 0 mm 2 m/s 745 mmHg 87%
    03:00 +18°C° 0,4 mm 2 m/s 745 mmHg 89%
    04:00 +18°C° 0,4 mm 2 m/s 745 mmHg 91%
    05:00 +18°C° 0,4 mm 2 m/s 744 mmHg 94%
    06:00 +18°C° 1 mm 3 m/s 744 mmHg 94%
    07:00 +18°C° 1 mm 3 m/s 744 mmHg 95%
    08:00 +19°C° 1 mm 3 m/s 744 mmHg 95%
    09:00 +20°C° 0,3 mm 3 m/s 744 mmHg 90%
    10:00 +21°C° 0,3 mm 3 m/s 744 mmHg 85%
    11:00 +23°C° 0,3 mm 4 m/s 744 mmHg 80%
    12:00 +25°C° 0,5 mm 4 m/s 744 mmHg 77%
    13:00 +26°C° 0,5 mm 4 m/s 744 mmHg 75%
    14:00 +26°C° 0,5 mm 4 m/s 744 mmHg 72%
    15:00 +26°C° 0,4 mm 4 m/s 744 mmHg 73%
    16:00 +26°C° 0,4 mm 4 m/s 744 mmHg 74%
    17:00 +26°C° 0,4 mm 3 m/s 744 mmHg 74%
    18:00 +25°C° 0,3 mm 3 m/s 743 mmHg 79%
    19:00 +24°C° 0,3 mm 2 m/s 743 mmHg 83%
    20:00 +21°C° 0,3 mm 2 m/s 743 mmHg 87%
    21:00 +20°C° 0,1 mm 2 m/s 743 mmHg 89%
    22:00 +19°C° 0,1 mm 2 m/s 743 mmHg 91%
    23:00 +19°C° 0,1 mm 2 m/s 743 mmHg 93%

    Demain, 20 Juillet, Vendredi

    Heure Température Précipitation Vent Pression Humidité
    00:00 +18°C° 0 mm 2 m/s 743 mmHg 94%
    01:00 +18°C° 0 mm 2 m/s 743 mmHg 95%
    02:00 +17°C° 0 mm 2 m/s 743 mmHg 96%
    03:00 +17°C° 0 mm 2 m/s 743 mmHg 96%
    04:00 +17°C° 0 mm 2 m/s 743 mmHg 96%
    05:00 +17°C° 0 mm 2 m/s 743 mmHg 96%
    06:00 +19°C° 0 mm 2 m/s 743 mmHg 92%
    07:00 +20°C° 0 mm 2 m/s 743 mmHg 88%
    08:00 +22°C° 0 mm 3 m/s 743 mmHg 84%
    09:00 +23°C° 0,4 mm 2 m/s 743 mmHg 82%
    10:00 +24°C° 0,4 mm 2 m/s 743 mmHg 81%
    11:00 +25°C° 0,4 mm 2 m/s 743 mmHg 80%
    12:00 +25°C° 1,2 mm 2 m/s 742 mmHg 79%
    13:00 +26°C° 1,2 mm 2 m/s 742 mmHg 78%
    14:00 +26°C° 1,2 mm 2 m/s 742 mmHg 78%
    15:00 +26°C° 1,4 mm 2 m/s 742 mmHg 80%
    16:00 +26°C° 1,4 mm 2 m/s 742 mmHg 82%
    17:00 +25°C° 1,4 mm 2 m/s 741 mmHg 84%
    18:00 +24°C° 0,6 mm 2 m/s 741 mmHg 87%
    19:00 +23°C° 0,6 mm 2 m/s 741 mmHg 90%
    20:00 +22°C° 0,6 mm 1 m/s 741 mmHg 94%
    21:00 +22°C° 0 mm 1 m/s 741 mmHg 95%
    22:00 +21°C° 0 mm 1 m/s 741 mmHg 96%
    23:00 +20°C° 0 mm 1 m/s 741 mmHg 97%

    Après-demain, 21 Juillet, Samedi

    Heure Température Précipitation Vent Pression Humidité
    00:00 +20°C° 0 mm 1 m/s 741 mmHg 98%
    01:00 +19°C° 0 mm 1 m/s 741 mmHg 98%
    02:00 +19°C° 0 mm 1 m/s 741 mmHg 98%
    03:00 +19°C° 0 mm 1 m/s 741 mmHg 98%
    04:00 +19°C° 0 mm 1 m/s 742 mmHg 98%
    05:00 +19°C° 0 mm 1 m/s 742 mmHg 98%
    06:00 +20°C° 0 mm 1 m/s 742 mmHg 95%
    07:00 +22°C° 0 mm 1 m/s 742 mmHg 92%
    08:00 +23°C° 0 mm 1 m/s 742 mmHg 88%
    09:00 +24°C° 0,3 mm 1 m/s 742 mmHg 84%
    10:00 +25°C° 0,3 mm 1 m/s 742 mmHg 80%
    11:00 +26°C° 0,3 mm 1 m/s 742 mmHg 75%
    12:00 +26°C° 0,6 mm 1 m/s 741 mmHg 73%
    13:00 +27°C° 0,6 mm 1 m/s 741 mmHg 71%
    14:00 +28°C° 0,6 mm 1 m/s 741 mmHg 68%
    15:00 +27°C° 0,5 mm 2 m/s 741 mmHg 71%
    16:00 +27°C° 0,5 mm 2 m/s 741 mmHg 74%
    17:00 +26°C° 0,5 mm 3 m/s 741 mmHg 76%
    18:00 +25°C° 0,2 mm 2 m/s 741 mmHg 80%
    19:00 +24°C° 0,2 mm 2 m/s 741 mmHg 84%
    20:00 +23°C° 0,2 mm 2 m/s 742 mmHg 88%
    21:00 +21°C° 0 mm 2 m/s 742 mmHg 91%
    22:00 +20°C° 0 mm 2 m/s 742 mmHg 93%
    23:00 +20°C° 0 mm 2 m/s 742 mmHg 95%

    22 Juillet, Dimanche

    Heure Température Précipitation Vent Pression Humidité
    00:00 +19°C° 0 mm 2 m/s 742 mmHg 95%
    01:00 +19°C° 0 mm 2 m/s 742 mmHg 96%
    02:00 +18°C° 0 mm 2 m/s 742 mmHg 97%
    03:00 +18°C° 0 mm 2 m/s 742 mmHg 96%
    04:00 +18°C° 0 mm 2 m/s 742 mmHg 95%
    05:00 +18°C° 0 mm 2 m/s 742 mmHg 94%
    06:00 +19°C° 0 mm 2 m/s 742 mmHg 90%
    07:00 +19°C° 0 mm 2 m/s 742 mmHg 86%
    08:00 +20°C° 0 mm 2 m/s 742 mmHg 82%
    09:00 +23°C° 0 mm 2 m/s 742 mmHg 77%
    10:00 +24°C° 0 mm 3 m/s 742 mmHg 71%
    11:00 +25°C° 0 mm 3 m/s 742 mmHg 65%
    12:00 +26°C° 0,1 mm 3 m/s 742 mmHg 64%
    13:00 +27°C° 0,1 mm 3 m/s 742 mmHg 62%
    14:00 +27°C° 0,1 mm 3 m/s 742 mmHg 61%
    15:00 +27°C° 0,5 mm 2 m/s 742 mmHg 68%
    16:00 +26°C° 0,5 mm 2 m/s 742 mmHg 76%
    17:00 +25°C° 0,5 mm 2 m/s 742 mmHg 83%
    18:00 +24°C° 0,5 mm 2 m/s 742 mmHg 86%
    19:00 +23°C° 0,5 mm 2 m/s 742 mmHg 89%
    20:00 +21°C° 0,5 mm 2 m/s 742 mmHg 92%
    21:00 +20°C° 0,2 mm 2 m/s 742 mmHg 93%
    22:00 +19°C° 0,2 mm 2 m/s 742 mmHg 93%
    23:00 +19°C° 0,2 mm 2 m/s 742 mmHg 94%

    23 Juillet, Lundi

    Heure Température Précipitation Vent Pression Humidité
    00:00 +18°C° 0 mm 2 m/s 742 mmHg 93%
    01:00 +17°C° 0 mm 2 m/s 742 mmHg 93%
    02:00 +17°C° 0 mm 2 m/s 742 mmHg 92%
    03:00 +16°C° 0 mm 2 m/s 743 mmHg 92%
    04:00 +15°C° 0 mm 2 m/s 743 mmHg 91%
    05:00 +15°C° 0 mm 2 m/s 743 mmHg 91%
    06:00 +16°C° 0 mm 3 m/s 743 mmHg 85%
    07:00 +18°C° 0 mm 3 m/s 743 mmHg 78%
    08:00 +19°C° 0 mm 3 m/s 743 mmHg 72%
    09:00 +21°C° 0 mm 3 m/s 743 mmHg 65%
    10:00 +22°C° 0 mm 3 m/s 743 mmHg 59%
    11:00 +25°C° 0 mm 3 m/s 743 mmHg 53%
    12:00 +26°C° 0 mm 3 m/s 743 mmHg 51%
    13:00 +26°C° 0 mm 3 m/s 743 mmHg 50%
    14:00 +27°C° 0 mm 3 m/s 743 mmHg 48%
    15:00 +27°C° 0 mm 3 m/s 743 mmHg 51%
    16:00 +27°C° 0 mm 3 m/s 743 mmHg 53%
    17:00 +27°C° 0 mm 2 m/s 743 mmHg 55%
    18:00 +25°C° 0 mm 2 m/s 743 mmHg 62%
    19:00 +24°C° 0 mm 2 m/s 743 mmHg 69%
    20:00 +22°C° 0 mm 1 m/s 743 mmHg 76%
    21:00 +20°C° 0 mm 2 m/s 743 mmHg 79%
    22:00 +19°C° 0 mm 2 m/s 743 mmHg 81%
    23:00 +18°C° 0 mm 2 m/s 744 mmHg 83%

    24 Juillet, Mardi

    Heure Température Précipitation Vent Pression Humidité
    00:00 +18°C° 0 mm 2 m/s 744 mmHg 84%
    01:00 +17°C° 0 mm 2 m/s 744 mmHg 85%
    02:00 +17°C° 0 mm 2 m/s 744 mmHg 86%
    03:00 +17°C° 0 mm 2 m/s 744 mmHg 86%
    04:00 +16°C° 0 mm 2 m/s 744 mmHg 86%
    05:00 +16°C° 0 mm 2 m/s 744 mmHg 86%
    06:00 +18°C° 0 mm 2 m/s 744 mmHg 80%
    07:00 +19°C° 0 mm 2 m/s 744 mmHg 74%
    08:00 +21°C° 0 mm 2 m/s 744 mmHg 68%
    09:00 +23°C° 0 mm 2 m/s 745 mmHg 64%
    10:00 +25°C° 0 mm 2 m/s 745 mmHg 60%
    11:00 +26°C° 0 mm 2 m/s 745 mmHg 56%
    12:00 +27°C° 0 mm 3 m/s 745 mmHg 55%
    13:00 +28°C° 0 mm 3 m/s 744 mmHg 54%
    14:00 +28°C° 0 mm 3 m/s 744 mmHg 53%
    15:00 +28°C° 0,1 mm 3 m/s 744 mmHg 56%
    16:00 +28°C° 0,1 mm 3 m/s 744 mmHg 59%
    17:00 +28°C° 0,1 mm 3 m/s 744 mmHg 62%
    18:00 +26°C° 0,1 mm 2 m/s 744 mmHg 69%
    19:00 +25°C° 0,1 mm 2 m/s 745 mmHg 76%
    20:00 +23°C° 0,1 mm 2 m/s 745 mmHg 84%
    21:00 +21°C° 0 mm 2 m/s 745 mmHg 86%
    22:00 +20°C° 0 mm 2 m/s 745 mmHg 89%
    23:00 +19°C° 0 mm 2 m/s 745 mmHg 91%
    Voir plus